www.pogodaiklimat.ru

Погода и климат >> Архив погоды >> Россия >> Магаданская область >> Мыс Братьев


ПОГОДА на Мысе Братьев

  • Прогноз погоды на Мысе Братьев
  • Монитор погоды на Мысе Братьев
  • Климат города

АРХИВ ПОГОДЫ на Мысе Братьев

Время (UTC), дата Ветер
(напр.,м/с)
 
Видим.   Явления Облачность Т
(С)
Тd
(С)
f
(%)
Тe
(С)
Тes
(С)
Комфортность P
(гПа)
Po
(гПа)
Тmin
(С)
Tmax
(С)
R
(мм)
R24
(мм)
S
(см)
12 15.04 З 1 50 км ясно -5.5 -12.5 58 -7 -7 1005.6 1003.9
15 15.04 штиль 0 50 км ясно -6.4 -10.8 71 -7 -7 1004.8 1003.2
18 15.04 штиль 0 50 км ясно -6.3 -11.6 66 -7 -7 1003.8 1002.1
21 15.04 штиль 0 50 км ясно -3.8 -8.9 68 -5 -1 1002.8 1001.2 -7.7 29
00 16.04 штиль 0 50 км ясно -2.7 -6.4 76 -4 +8 1001.7 1000.1
03 16.04 С 1 50 км 8/8 600 м
[Cb cap]
-4.3 -6.7 83 -7 -4 1000.3 998.7
06 16.04 С 1 50 км 6/6 600 м
[Cb cap]
-4.1 -7.0 80 -6 -5 998.2 996.6
09 16.04 СВ 1 50 км ясно -6.3 -9.6 77 -9 -9 997.3 995.7 -2.5
12 16.04 СВ 3 50 км ясно -7.3 -9.5 84 -13 -13 996.9 995.3
15 16.04 СВ 2 50 км ясно -6.6 -9.1 82 -11 -11 995.7 994.1
18 16.04 З 2 50 км ясно -9.0 -12.0 79 -13 -13 995.2 993.5
21 16.04 С 2 50 км ясно -6.8 -9.9 79 -11 -9 995.4 993.8 -9.2 29
00 17.04 С 1 50 км ясно -2.7 -8.1 66 -5 +6 995.4 993.8
03 17.04 С 3 50 км ясно -1.1 -5.4 73 -6 +2 995.5 993.9
06 17.04 С 5 50 км ясно -1.3 -4.6 78 -8 -6 995.6 994.0
09 17.04 ЮЗ 5 50 км ясно -3.2 -5.2 86 -10 -10 996.6 995.0 -0.7
12 17.04 штиль 0 50 км ясно -4.7 -6.2 89 -6 -6 998.0 996.3
15 17.04 С 4 50 км ясно -6.1 -7.4 90 -13 -13 998.7 997.0
18 17.04 штиль 0 50 км 3/3 1000 м
[Sc]
-5.6 -6.9 91 -7 -7 999.4 997.8
21 17.04 В 2 50 км 10/10 1000 м
[Sc]
-4.9 -6.6 88 -9 -9 1000.3 998.7 -7.6 29
00 18.04 штиль 0 50 км 10/10 600 м
[Cb cap]
-3.0 -5.9 80 -4 -4 1000.7 999.1
03 18.04 штиль 0 50 км 8/8 600 м
[Cb cap]
-1.9 -5.6 76 -3 -0 1000.7 999.1
06 18.04 штиль 0 50 км 9/9
[Cb cap]
-2.2 -5.8 76 -3 -3 1000.8 999.2
09 18.04 С 5
{10}
50 км 10/10 600 м
[Cb cap]
-2.4 -5.1 82 -9 -9 1001.7 1000.1 -1.2
12 18.04 С 3 50 км ясно -5.2 -7.3 85 -11 -11 1002.9 1001.3
15 18.04 СВ 3 50 км ясно -3.7 -7.7 74 -9 -9 1003.6 1002.0
18 18.04 С 5 50 км ясно -7.2 -12.6 65 -14 -14 1004.5 1002.8
21 18.04 штиль 0 50 км ясно -3.7 -8.8 68 -4 -1 1005.7 1004.1 -7.8 26
00 19.04 В 3 50 км ясно -1.9 -7.5 66 -7 +1 1006.0 1004.4
03 19.04 В 2 50 км 3/0
[Ci fib]
-1.8 -6.8 69 -5 +4 1006.5 1004.9
06 19.04 В 3 50 км ясно -1.9 -6.3 72 -7 -4 1006.6 1005.0
09 19.04 ЮВ 1 50 км 3/0
[Ac lent]
-3.6 -7.8 73 -6 -6 1007.7 1006.0 -1.3
12 19.04 СВ 1 50 км ясно -5.9 -9.5 76 -8 -8 1008.2 1006.5
15 19.04 штиль 0 50 км ясно -5.8 -9.1 77 -7 -7 1008.4 1006.7
18 19.04 штиль 0 50 км 8/8 600 м
[Cb cap]
-4.8 -8.6 75 -6 -6 1008.6 1006.9
21 19.04 С 2 50 км 8/1 600 м
[Cb cap Ci]
-3.9 -9.2 67 -8 -6 1008.4 1006.7 -6.7 24
00 20.04 ЮВ 1 50 км 9/0
[Ci]
-1.3 -7.0 65 -3 +6 1008.0 1006.4
03 20.04 З 2 10 км слабый ливневой снег 10/10 600 м
[Cb cap]
-1.5 -5.1 76 -5 -5 1008.0 1006.4
06 20.04 В 2 10 км слабый снег {ливн. осадки} 10/8 600 м
[Cb cap As op]
-2.0 -3.7 88 -6 -6 1008.7 1007.0
09 20.04 С 3 50 км {снег} 10/8 600 м
[Cb cap As op]
-1.8 -3.7 87 -7 -7 1009.7 1008.1 -0.4 0.9
12 20.04 З 5
{10}
50 км {снег, метель} 8/8 600 м
[Cb cap]
-1.6 -4.2 82 -8 -8 1010.7 1009.0
15 20.04 З 5
{10}
50 км 6/6 600 м
[Cb cap]
-1.8 -4.7 81 -8 -8 1011.0 1009.4
18 20.04 штиль 0 50 км 8/0
[As trans]
-2.7 -4.5 87 -4 -4 1011.1 1009.4
21 20.04 штиль 0 50 км 10/0
[As trans]
-1.5 -3.2 88 -3 -1 1010.9 1009.3 -2.8 21
00 21.04 Ю 4 4000 м слабый снег 10/0
[As trans]
-0.9 -2.7 88 -7 -4 1011.0 1009.4
03 21.04 штиль 0 4000 м слабый снег 10/0
[As trans]
-1.1 -2.0 94 -2 +3 1011.5 1009.9
06 21.04 штиль 0 50 км {снег} 8/8 600 м
[Cb cap]
-0.9 -2.4 90 -2 -1 1011.4 1009.8
09 21.04 В 1 50 км 6/6 600 м
[Cb cap]
-1.5 -2.8 91 -4 -4 1012.3 1010.6 -0.3 1
12 21.04 СВ 1 50 км 10/10 1000 м
[Sc]
-1.4 -2.7 91 -4 -4 1012.3 1010.7
15 21.04 СВ 3 10 км слабый снег 10/10 1000 м
[Sc]
-1.7 -3.0 91 -7 -7 1011.6 1009.9
18 21.04 штиль 0 10 км слабый снег 10/10 1000 м
[Sc]
-2.3 -3.6 91 -4 -4 1010.3 1008.7
21 21.04 СВ 5 50 км {снег} 10/10 1000 м
[Sc]
-0.7 -2.1 90 -7 -7 1009.3 1007.7 -2.5 2 21
00 22.04 н/о
03 22.04 СВ 7-11
{12}
10 км слабый ливневой снег 10/10 600 м
[Cb cap]
-0.4 -1.7 91 -8 -8 1007.9 1006.3
06 22.04 СВ 8-12
{14}
4000 м слабый ливневой снег {метель} 10/10 600 м
[Cb cap]
-0.9 -2.2 91 -9 -9 1007.4 1005.8
09 22.04 СВ 8-12
{16}
4000 м слабый ливневой снег 10/10 600 м
[Cb cap]
-1.6 -2.5 94 -10 -10 1008.2 1006.6 -0.3 3

 

Местоположение метеостанции Мыс Братьев (Магаданская область, Россия): широта 59.10 долгота 153.30 высота над уровнем моря 13 м.

В архиве по умолчанию представлена погода на Мысе Братьев за последнюю неделю. Архивные данные за месяц целиком и за предыдущие месяцы, начиная с января 2011 года, Вы можете получить, выбрав интересующий диапазон дат из раскрывающегося списка и нажав кнопку "Ввод!".


*Определитесь, кто Вы:
робот инопланетянин человек

Внимание! Время в таблицах - всемирное. Для получения местного времени необходимо прибавить поправку, которая на Мысе Братьев равна 11 ч.

Смотрите также архив погоды в соседних городах и на ближайших метеорологических станциях:

Погода в Брохово (Магаданская область, Россия) (80 км)
Погода на Мысе Алевина (Магаданская область, Россия) (119 км)
Погода в Оле (Магаданская область, Россия) (130 км)
Погода в Нагаева (Магаданская область, Россия) (154 км)
Погода в Магадане (Магаданская область, Россия) (156 км)
Погода в Палатке (Магаданская область, Россия) (175 км)
Погода в Армани (Магаданская область, Россия) (192 км)
Погода в Мадауне (Магаданская область, Россия) (221 км)
Погода в Шелихова (Магаданская область, Россия) (228 км)
Погода в Талае (Магаданская область, Россия) (232 км)

Пояснения к столбцам:

Ветер - указаны скорость ветра в м/с - средняя за 10 мин, порывы в срок и между сроками (в фигурных скобках) и направление, откуда дует ветер: С - северный, СВ - северо-восточный, В - восточный, ЮВ - юго-восточный, Ю - южный, ЮЗ - юго-западный, З - западный, СЗ - северо-западный.
Видимость - горизонтальная дальность видимости в метрах или километрах. При видимости от 1 до 10 км при отсутствии осадков обычно наблюдается дымка, при ухудшении видимости до 1 км и менее - туман. В сухую погоду видимость может ухудшаться дымом, пылью или мглою.
Явления - указаны атмосферные явления, наблюдавшиеся в срок или в последний час перед сроком; фигурными скобками обозначены явления, наблюдавшиеся между сроками (за 1-3 часа до срока); квадратными скобками обозначены град или гололедные отложения с указанием их диаметра в мм.
Облачность - указаны через наклонную черту общая и нижняя облачность в баллах и высота нижней границы облаков в метрах; квадратными скобками обозначены формы облаков: Ci - перистые, Cs - перисто-слоистые, Cc - перисто-кучевые, Ac - высококучевые, As - высокослоистые, Sc - слоисто-кучевые, Ns - слоисто-дождевые, Cu - кучевые, Cb - кучево-дождевые. Подробнее классификацию облаков см. в Атласе облаков (PDF).
T - Температура воздуха - температура, измеренная на высоте 2 м над землей.
Td - Температура точки росы - температура, при понижении до которой содержащийся в воздухе водяной пар достигнет насыщения.
f - Относительная влажность воздуха - влажноcть воздуха, измеренная на высоте 2 м над землей.
Te - Эффективная температура - температура, которую ощущает одетый по сезону человек в тени. Характеристика душности погоды. При расчете учитывается влияние влажности воздуха и скорости ветра на теплоощущения человека.
Tes - Эффективная температура на солнце - температура, которую ощущает человек, с поправкой на солнечный нагрев. Характеристика знойности погоды. Зависит от высоты солнца над горизонтом, облачности и скорости ветра. Ночью, в пасмурную погоду, а также при ветре 12 м/с и более поправка равна нулю.
P - Атмосферное давление - приведенное к уровню моря атмосферное давление.
Po - Атмосферное давление - измеренное на уровне метеостанции атмосферное давление.
Tmin - Минимальная температура - минимум температуры воздуха на высоте 2 м над землей.
Tmax - Максимальная температура - максимум температуры воздуха на высоте 2 м над землей.
R - Количество осадков - Количество выпавших осадков за период времени, мм. При наведении курсора мыши на число - период времени, за который выпало указанное количество осадков.
R24 - Количество осадков - Количество выпавших осадков за 24 часа, мм.
S - Снежный покров - Высота снежного покрова, см. При наведении курсора мыши на число - состояние снежного покрова и степень покрытия местности в баллах.